Location: Newark
(52.4787°S, 179.0532°W)
Time: 08:42:35
(UTC+00:00)

Envisat - Pass Details

Date: 23 October 2019
Orbit: 764 x 766 km, 98.1° (Epoch: 19 November)

Event Time Altitude Azimuth Distance (km) Brightness Sun altitude
Rises 08:28:12 0° 173° (S) 3,277 6.8 -14.0°
Reaches altitude 10° 08:30:52 10° 185° (S) 2,344 6.2 -14.3°
Maximum altitude 08:35:01 25° 238° (WSW) 1,529 5.5 -14.8°
Drops below altitude 10° 08:39:09 10° 292° (WNW) 2,325 5.8 -15.3°
Sets 08:41:47 0° 304° (NW) 3,244 6.4 -15.6°
